New Bern, NC

5:57 AM EDT on May 21, 2018 (GMT -0400)
Craven County Regional

Weather History for KEWN - March, 2012

Change the Weather History Date:

Tuesday, March 6, 2012

  Actual Average Record
Temperature  
Mean Temperature 42 °F 51 °F  
Max Temperature 53 °F 62 °F 85 °F (1961)
Min Temperature 31 °F 39 °F 20 °F (1960)
Degree Days  
Heating Degree Days 23 15  
Month to date heating degree days 66 91  
Since 1 July heating degree days 1855 2237  
Cooling Degree Days 0 0  
Month to date cooling degree days 9 0  
Year to date cooling degree days 13 3  
Moisture  
Dew Point 27 °F    
Average Humidity 59    
Maximum Humidity 82    
Minimum Humidity 35    
Precipitation  
Precipitation 0.00 in 0.15 in 2.26 in (1959)
Month to date precipitation 1.61 0.85  
Year to date precipitation 6.26 8.53  
Snow  
Snow 0.00 in - - ()
Month to date snowfall 0.0  
Since 1 July snowfall T  
Snow Depth 0.00 in    
Sea Level Pressure  
Sea Level Pressure 30.64 in    
Wind  
Wind Speed 6 mph (NE)    
Max Wind Speed 17 mph    
Max Gust Speed 21 mph    
Visibility 10 miles    
Events      
T = Trace of Precipitation, MM = Missing Value Source: NWS Daily Summary

Daily Weather History Graph

Daily Weather History Graph

Search for Another Location

Airport or City:

Astronomy

Mar. 06, 2012 Rise Set
Actual Time 6:30 AM EST 6:08 PM EST
Civil Twilight 6:05 AM EST 6:33 PM EST
Nautical Twilight 5:35 AM EST 7:03 PM EST
Astronomical Twilight 5:06 AM EST 7:32 PM EST
Moon 4:34 PM EST (3/6) 5:01 AM EST (3/6)
Length of Visible Light 12h 28m
Length of Day
11h 38m
Waxing Gibbous, 96% of the Moon is Illuminated
Mar 6
Waxing Gibbous
Mar 8
Full
Mar 14
Last Quarter
Mar 22
New
Mar 30
First Quarter

Hourly Weather History & Observations

Time (EST) Temp. Windchill Dew Point Humidity Pressure Visibility Wind Dir Wind Speed Gust Speed Precip Events Conditions
12:54 AM 37.9 °F 34.4 °F 24.1 °F 57% 30.52 in 10.0 mi NNW 4.6 mph - N/A   Clear
1:54 AM 37.9 °F 32.1 °F 23.0 °F 55% 30.53 in 10.0 mi NNW 8.1 mph 17.3 mph N/A   Clear
2:54 AM 37.0 °F 32.4 °F 23.0 °F 57% 30.55 in 10.0 mi NNW 5.8 mph - N/A   Clear
3:54 AM 35.1 °F 29.3 °F 23.0 °F 61% 30.56 in 10.0 mi North 6.9 mph - N/A   Clear
4:54 AM 33.1 °F 28.7 °F 23.0 °F 66% 30.58 in 10.0 mi North 4.6 mph - N/A   Clear
5:54 AM 30.9 °F - 23.0 °F 72% 30.62 in 10.0 mi Calm Calm - N/A   Clear
6:54 AM 34.0 °F 28.0 °F 26.1 °F 73% 30.64 in 10.0 mi NNE 6.9 mph - N/A   Clear
7:54 AM 37.0 °F 30.4 °F 28.0 °F 70% 30.67 in 10.0 mi NE 9.2 mph - N/A   Clear
8:54 AM 39.9 °F 32.9 °F 25.0 °F 55% 30.69 in 10.0 mi NE 11.5 mph 18.4 mph N/A   Clear
9:54 AM 44.1 °F 38.1 °F 24.1 °F 45% 30.71 in 10.0 mi NE 11.5 mph - N/A   Clear
10:54 AM 46.0 °F 41.9 °F 24.1 °F 42% 30.71 in 10.0 mi North 8.1 mph - N/A   Clear
11:54 AM 48.0 °F - 25.0 °F 41% 30.71 in 10.0 mi NNE 9.2 mph - N/A   Clear
12:54 PM 48.9 °F - 25.0 °F 39% 30.69 in 10.0 mi ENE 6.9 mph - N/A   Clear
1:54 PM 51.1 °F - 25.0 °F 36% 30.66 in 10.0 mi Variable 4.6 mph - N/A   Clear
2:54 PM 52.0 °F - 27.0 °F 38% 30.65 in 10.0 mi SSE 8.1 mph - N/A   Clear
3:54 PM 51.1 °F - 30.0 °F 44% 30.65 in 10.0 mi SE 8.1 mph - N/A   Clear
4:54 PM 48.9 °F - 30.0 °F 48% 30.64 in 10.0 mi SSE 10.4 mph - N/A   Clear
5:54 PM 46.4 °F 42.9 °F 30.2 °F 53% 30.65 in 10.0 mi SE 6.9 mph - N/A   Clear
6:54 PM 45.0 °F 43.5 °F 30.9 °F 58% 30.65 in 10.0 mi ESE 3.5 mph - N/A   Clear
7:54 PM 42.1 °F - 32.0 °F 67% 30.67 in 10.0 mi Calm Calm - N/A   Clear
8:54 PM 37.9 °F - 30.0 °F 73% 30.68 in 10.0 mi Calm Calm - N/A   Clear
10:54 PM 35.1 °F - 30.9 °F 85% 30.70 in 10.0 mi Calm Calm - N/A   Clear
11:54 PM 36.0 °F - 33.1 °F 89% 30.69 in 9.0 mi Calm Calm - N/A   Clear